TimeCST,TemperatureF,Dew PointF,Humidity,Sea Level PressureIn,VisibilityMPH,Wind Direction,Wind SpeedMPH,Gust SpeedMPH,PrecipitationIn,Events,Conditions,WindDirDegrees,DateUTC
12:56 AM,62.1,60.1,93,30.30,5.0,SE,6.9,-,N/A,,Overcast,130,2013-01-10 06:56:00
1:56 AM,62.1,61.0,96,30.29,3.0,ESE,6.9,-,N/A,,Overcast,120,2013-01-10 07:56:00
2:49 AM,62.6,60.8,94,30.25,2.5,ESE,5.8,-,N/A,,Overcast,110,2013-01-10 08:49:00
2:56 AM,63.0,61.0,93,30.27,2.5,ESE,8.1,-,N/A,,Overcast,110,2013-01-10 08:56:00
3:56 AM,63.0,61.0,93,30.25,2.0,ESE,6.9,-,N/A,,Overcast,110,2013-01-10 09:56:00
4:11 AM,62.6,60.8,94,30.21,1.5,ESE,6.9,-,N/A,,Overcast,110,2013-01-10 10:11:00
4:25 AM,62.6,60.8,94,30.21,1.0,ESE,6.9,-,N/A,,Overcast,110,2013-01-10 10:25:00
4:56 AM,63.0,62.1,97,30.24,1.0,SE,5.8,-,N/A,,Overcast,130,2013-01-10 10:56:00
5:16 AM,62.6,60.8,94,30.21,0.8,East,6.9,-,N/A,,Overcast,100,2013-01-10 11:16:00
5:21 AM,62.6,60.8,94,30.20,1.2,ESE,6.9,-,N/A,,Overcast,110,2013-01-10 11:21:00
5:56 AM,63.0,62.1,97,30.23,1.0,ESE,5.8,-,N/A,,Overcast,110,2013-01-10 11:56:00
6:00 AM,62.6,62.6,100,30.20,1.0,East,6.9,-,N/A,,Overcast,90,2013-01-10 12:00:00
6:56 AM,63.0,62.1,97,30.24,0.5,East,6.9,-,N/A,Fog,Fog,100,2013-01-10 12:56:00
7:56 AM,64.0,63.0,96,30.28,0.5,ESE,3.5,-,N/A,Fog,Fog,120,2013-01-10 13:56:00
8:45 AM,64.4,62.6,94,30.24,1.5,ESE,6.9,-,N/A,,Overcast,120,2013-01-10 14:45:00
8:56 AM,64.9,63.0,93,30.27,1.5,ESE,6.9,-,N/A,,Overcast,120,2013-01-10 14:56:00
9:38 AM,66.2,64.4,94,30.24,2.0,SE,6.9,-,N/A,,Overcast,130,2013-01-10 15:38:00
9:56 AM,66.9,64.0,90,30.27,2.0,SE,8.1,-,N/A,,Overcast,130,2013-01-10 15:56:00
10:44 AM,69.8,64.4,83,30.22,9.0,SE,10.4,16.1,N/A,,Overcast,130,2013-01-10 16:44:00
10:56 AM,69.1,64.9,87,30.25,9.0,SE,8.1,20.7,N/A,,Overcast,130,2013-01-10 16:56:00
11:31 AM,69.8,64.4,83,30.19,9.0,SSE,10.4,17.3,N/A,,Overcast,150,2013-01-10 17:31:00
11:56 AM,71.1,64.9,81,30.20,9.0,SSE,9.2,20.7,N/A,,Overcast,150,2013-01-10 17:56:00
12:09 PM,71.6,64.4,78,30.17,9.0,SSE,10.4,20.7,N/A,,Overcast,150,2013-01-10 18:09:00
12:45 PM,71.6,64.4,78,30.18,10.0,South,8.1,-,N/A,,Overcast,170,2013-01-10 18:45:00
12:56 PM,72.0,64.9,78,30.20,10.0,SSE,6.9,16.1,N/A,,Overcast,160,2013-01-10 18:56:00
1:56 PM,72.0,64.0,76,30.16,10.0,SE,8.1,-,N/A,,Overcast,130,2013-01-10 19:56:00
2:56 PM,72.0,64.0,76,30.16,9.0,SSE,9.2,16.1,N/A,,Overcast,150,2013-01-10 20:56:00
3:03 PM,71.6,64.4,78,30.13,1.5,SSE,10.4,17.3,0.01,Rain,Light Rain,150,2013-01-10 21:03:00
3:34 PM,68.0,64.4,88,30.13,8.0,South,4.6,-,0.04,,Overcast,170,2013-01-10 21:34:00
3:56 PM,68.0,66.0,93,30.17,6.0,SSE,3.5,-,0.04,,Overcast,160,2013-01-10 21:56:00
4:24 PM,68.0,64.4,88,30.13,4.0,SSE,4.6,-,0.00,Rain,Light Rain,160,2013-01-10 22:24:00
4:34 PM,68.0,64.4,88,30.14,1.5,South,5.8,-,0.01,Rain,Light Rain,170,2013-01-10 22:34:00
4:42 PM,68.0,64.4,88,30.13,1.5,SSE,5.8,-,0.04,Rain-Thunderstorm,Thunderstorms and Rain,150,2013-01-10 22:42:00
4:56 PM,66.9,66.0,97,30.17,1.5,South,3.5,-,0.10,Rain,Rain,180,2013-01-10 22:56:00
5:16 PM,66.2,64.4,94,30.09,1.2,ESE,18.4,23.0,0.14,Rain,Heavy Rain,120,2013-01-10 23:16:00
5:33 PM,66.2,64.4,94,30.07,3.0,ESE,19.6,29.9,0.22,Rain,Heavy Rain,120,2013-01-10 23:33:00
5:56 PM,66.9,64.9,93,29.97,4.0,ESE,33.4,47.2,0.28,Rain,Light Rain,120,2013-01-10 23:56:00
6:56 PM,68.0,64.0,87,30.04,10.0,SE,13.8,25.3,0.00,,Overcast,140,2013-01-11 00:56:00
7:56 PM,68.0,64.0,87,30.05,10.0,SSE,11.5,18.4,N/A,,Overcast,150,2013-01-11 01:56:00
8:56 PM,66.9,63.0,87,30.07,10.0,South,5.8,-,N/A,,Overcast,170,2013-01-11 02:56:00
9:56 PM,66.9,63.0,87,30.10,10.0,South,6.9,-,N/A,,Overcast,180,2013-01-11 03:56:00
10:32 PM,66.2,62.6,88,30.07,10.0,South,6.9,-,N/A,,Mostly Cloudy,180,2013-01-11 04:32:00
10:56 PM,66.9,63.0,87,30.12,10.0,South,6.9,-,N/A,,Overcast,180,2013-01-11 04:56:00
11:56 PM,66.0,62.1,87,30.11,10.0,South,8.1,-,N/A,,Overcast,190,2013-01-11 05:56:00